Location: Le Hiès Ruisseau
(43.3000°N, 0.4500°W)
Time: 13:26:18
(UTC+00:00)

CZ-4 R/B - Pass Details

Date: 28 January 2023
Orbit: 577 x 585 km, 97.7° (Epoch: 20 March)

Event Time Altitude Azimuth Distance (km) Brightness Sun altitude
Rises 18:17:11 0° 166° (SSE) 2,778 7.9 -12.7°
Reaches altitude 10° 18:19:19 10° 166° (SSE) 1,885 7.0 -13.1°
Maximum altitude 18:23:24 89° 258° (WSW) 585 4.4 -13.9°
Drops below altitude 10° 18:27:33 10° 347° (NNW) 1,905 7.1 -14.6°
Sets 18:29:43 0° 348° (NNW) 2,810 8.0 -15.0°
